This is the latest recevied weather packets stored in our database for station/object W4OA. If no packets are shown the sender has not sent any weather packets the latest 10 day(s).
| Time | Temp. | Humidity | Pressure | Rain* | Wind** | Luminosity | Snow |
|---|---|---|---|---|---|---|---|
| 1777824299 | 17.78° C | 39% | 1015 hPa | 0 mm | - | 0 W/m² | - |
| 1777823998 | 17.78° C | 38% | 1015 hPa | 0 mm | - | 0 W/m² | - |
| 1777823698 | 17.78° C | 40% | 1015 hPa | 0 mm | - | 0 W/m² | - |
| 1777823400 | 17.78° C | 41% | 1015 hPa | 0 mm | - | 0 W/m² | - |
| 1777823099 | 17.78° C | 39% | 1015 hPa | 0 mm | - | 0 W/m² | - |
| 1777822798 | 17.22° C | 39% | 1015 hPa | 0 mm | - | 0 W/m² | - |
| 1777822500 | 17.22° C | 40% | 1015 hPa | 0 mm | - | 0 W/m² | - |
| 1777822198 | 17.22° C | 40% | 1015 hPa | 0 mm | - | 0 W/m² | - |
| 1777821898 | 16.67° C | 44% | 1015 hPa | 0 mm | - | 0 W/m² | - |
| 1777821598 | 16.67° C | 46% | 1015 hPa | 0 mm | - | 0 W/m² | - |
| 1777821298 | 16.67° C | 45% | 1015 hPa | 0 mm | - | 0 W/m² | - |
| 1777820998 | 16.11° C | 44% | 1015 hPa | 0 mm | - | 0 W/m² | - |
| 1777820698 | 16.67° C | 45% | 1015 hPa | 0 mm | - | 0 W/m² | - |
| 1777820398 | 16.11° C | 44% | 1015 hPa | 0 mm | - | 0 W/m² | - |
| 1777820099 | 16.11° C | 46% | 1015 hPa | 0 mm | - | 0 W/m² | - |
| 1777819798 | 15.56° C | 45% | 1015 hPa | 0 mm | - | 0 W/m² | - |
| 1777819498 | 15.56° C | 45% | 1015 hPa | 0 mm | - | 0 W/m² | - |
| 1777819198 | 15.56° C | 42% | 1015 hPa | 0 mm | - | 0 W/m² | - |
| 1777818898 | 15.56° C | 45% | 1015 hPa | 0 mm | - | 0 W/m² | - |
| 1777818601 | 15° C | 50% | 1015 hPa | 0 mm | - | 0 W/m² | - |
| 1777818299 | 15° C | 50% | 1015 hPa | 0 mm | - | 0 W/m² | - |
| 1777817998 | 15° C | 50% | 1015 hPa | 0 mm | - | 0 W/m² | - |
| 1777817699 | 14.44° C | 55% | 1015 hPa | 0 mm | - | 0 W/m² | - |
| 1777817398 | 14.44° C | 54% | 1015 hPa | 0 mm | - | 0 W/m² | - |
| 1777817099 | 14.44° C | 57% | 1015 hPa | 0 mm | - | 0 W/m² | - |
* Rain latest hour (hover to see other rain measurements)
** Current wind speed in m/s (hover to see current wind gust speed)